| time (UTC) | temp F | wind direction | speed MPH | gust MPH | rain 1hr in | rain 24hr in | rain mn in | humidity % | barometer mb |
| 20260506230028 | 88 | 263 | 5.0 | 12.0 | 0.00 | 0.00 | 0.00 | 48 | 1013.2 |
| 20260506224555 | 89 | 252 | 5.0 | 11.0 | 0.00 | 0.00 | 0.00 | 46 | 1013.3 |
| 20260506223011 | 90 | 284 | 2.0 | 9.0 | 0.00 | 0.00 | 0.00 | 46 | 1013.3 |
| 20260506221559 | 90 | 288 | 5.0 | 14.0 | 0.00 | 0.00 | 0.00 | 45 | 1013.4 |
| 20260506220017 | 90 | 279 | 2.0 | 8.0 | 0.00 | 0.00 | 0.00 | 45 | 1013.4 |
| 20260506214600 | 90 | 267 | 7.0 | 12.0 | 0.00 | 0.00 | 0.00 | 44 | 1013.2 |
| 20260506213019 | 91 | 275 | 5.0 | 12.0 | 0.00 | 0.00 | 0.00 | 45 | 1013.3 |
| 20260506211555 | 93 | 320 | 5.0 | 10.0 | 0.00 | 0.00 | 0.00 | 42 | 1013.3 |
| 20260506210030 | 92 | 286 | 7.0 | 13.0 | 0.00 | 0.00 | 0.00 | 43 | 1013.4 |
| 20260506204548 | 92 | 196 | 3.0 | 15.0 | 0.00 | 0.00 | 0.00 | 43 | 1013.6 |
| 20260506160101 | 84 | 208 | 3.0 | 11.0 | 0.00 | 0.00 | 0.00 | 58 | 1016.6 |
| 20260506154521 | 83 | 291 | 3.0 | 11.0 | 0.00 | 0.00 | 0.00 | 58 | 1016.8 |
| 20260506153105 | 83 | 247 | 5.0 | 13.0 | 0.00 | 0.00 | 0.00 | 59 | 1016.7 |
| 20260506151526 | 81 | 269 | 2.0 | 10.0 | 0.00 | 0.00 | 0.00 | 60 | 1016.7 |
| 20260506144526 | 80 | 111 | 5.0 | 12.0 | 0.00 | 0.00 | 0.00 | 61 | 1016.7 |
| 20260506143104 | 79 | 254 | 3.0 | 10.0 | 0.00 | 0.00 | 0.00 | 62 | 1016.4 |
| 20260506141533 | 78 | 159 | 3.0 | 9.0 | 0.00 | 0.00 | 0.00 | 66 | 1016.4 |
| 20260506140101 | 77 | 281 | 2.0 | 7.0 | 0.00 | 0.00 | 0.00 | 69 | 1016.4 |
| 20260506134516 | 75 | 118 | 3.0 | 11.0 | 0.00 | 0.00 | 0.00 | 71 | 1016.5 |
| 20260506133102 | 74 | 146 | 2.0 | 10.0 | 0.00 | 0.00 | 0.00 | 72 | 1016.4 |
| 20260506131509 | 73 | 217 | 2.0 | 6.0 | 0.00 | 0.00 | 0.00 | 72 | 1016.5 |
| 20260506130041 | 72 | 165 | 2.0 | 9.0 | 0.00 | 0.00 | 0.00 | 74 | 1016.5 |
| 20260506124615 | 70 | 156 | 1.0 | 4.0 | 0.00 | 0.00 | 0.00 | 76 | 1016.4 |
| 20260506123033 | 67 | 167 | 0.0 | 3.0 | 0.00 | 0.00 | 0.00 | 80 | 1016.3 |
| 20260506121611 | 64 | 88 | 0.0 | 2.0 | 0.00 | 0.00 | 0.00 | 82 | 1016.0 |
| 20260506120044 | 62 | 88 | 0.0 | 2.0 | 0.00 | 0.00 | 0.00 | 86 | 1015.8 |
| 20260506114509 | 59 | 88 | 0.0 | 0.0 | 0.00 | 0.00 | 0.00 | 90 | 1015.7 |
| 20260506113043 | 58 | 88 | 0.0 | 1.0 | 0.00 | 0.00 | 0.00 | 90 | 1015.6 |
| 20260506111508 | 56 | 137 | 0.0 | 0.0 | 0.00 | 0.00 | 0.00 | 91 | 1015.7 |
| 20260506110045 | 56 | 137 | 0.0 | 0.0 | 0.00 | 0.00 | 0.00 | 90 | 1015.6 |
| 20260506104533 | 56 | 137 | 0.0 | 0.0 | 0.00 | 0.00 | 0.00 | 90 | 1015.4 |
| 20260506103105 | 56 | 137 | 0.0 | 0.0 | 0.00 | 0.00 | 0.00 | 90 | 1015.3 |
| 20260506101524 | 56 | 137 | 0.0 | 0.0 | 0.00 | 0.00 | 0.00 | 89 | 1015.1 |
| 20260506100105 | 56 | 137 | 0.0 | 0.0 | 0.00 | 0.00 | 0.00 | 89 | 1015.3 |
| 20260506094534 | 57 | 137 | 0.0 | 0.0 | 0.00 | 0.00 | 0.00 | 88 | 1015.3 |
| 20260506093104 | 57 | 137 | 0.0 | 0.0 | 0.00 | 0.00 | 0.00 | 88 | 1015.3 |
| 20260506091522 | 56 | 137 | 0.0 | 0.0 | 0.00 | 0.00 | 0.00 | 88 | 1015.3 |
| 20260506090054 | 58 | 137 | 0.0 | 0.0 | 0.00 | 0.00 | 0.00 | 88 | 1015.2 |
| 20260506084517 | 58 | 137 | 0.0 | 0.0 | 0.00 | 0.00 | 0.00 | 88 | 1014.9 |
| 20260506083058 | 58 | 137 | 0.0 | 0.0 | 0.00 | 0.00 | 0.00 | 88 | 1015.1 |
| 20260506081521 | 59 | 137 | 0.0 | 0.0 | 0.00 | 0.00 | 0.00 | 87 | 1015.1 |
| 20260506080113 | 59 | 137 | 0.0 | 0.0 | 0.00 | 0.00 | 0.00 | 87 | 1015.2 |
| 20260506073103 | 59 | 137 | 0.0 | 0.0 | 0.00 | 0.00 | 0.00 | 86 | 1015.0 |
| 20260506071515 | 59 | 137 | 0.0 | 0.0 | 0.00 | 0.00 | 0.00 | 85 | 1014.7 |
| 20260506061528 | 59 | 137 | 0.0 | 0.0 | 0.00 | 0.00 | 0.00 | 85 | 1015.5 |
| 20260506060106 | 59 | 137 | 0.0 | 0.0 | 0.00 | 0.00 | 0.00 | 85 | 1015.9 |
| 20260506050105 | 61 | 137 | 0.0 | 0.0 | 0.00 | 0.00 | 0.00 | 82 | 1016.3 |
| 20260506044515 | 61 | 137 | 0.0 | 2.0 | 0.00 | 0.00 | 0.00 | 81 | 1016.3 |
| 20260506043053 | 62 | 137 | 0.0 | 0.0 | 0.00 | 0.00 | 0.00 | 80 | 1016.3 |
| 20260506041512 | 62 | 137 | 0.0 | 2.0 | 0.00 | 0.00 | 0.00 | 78 | 1016.4 |
| 20260506040050 | 63 | 137 | 0.0 | 0.0 | 0.00 | 0.00 | 0.00 | 77 | 1016.4 |
| 20260506034519 | 63 | 137 | 0.0 | 0.0 | 0.00 | 0.00 | 0.00 | 76 | 1016.4 |
| 20260506033054 | 64 | 137 | 0.0 | 0.0 | 0.00 | 0.00 | 0.00 | 74 | 1016.4 |
| 20260506031515 | 65 | 137 | 0.0 | 2.0 | 0.00 | 0.00 | 0.00 | 71 | 1016.3 |
| 20260506030051 | 68 | 137 | 1.0 | 2.0 | 0.00 | 0.00 | 0.00 | 67 | 1016.0 |
| 20260506024526 | 67 | 137 | 0.0 | 3.0 | 0.00 | 0.00 | 0.00 | 69 | 1016.1 |
| 20260506023056 | 68 | 137 | 1.0 | 3.0 | 0.00 | 0.00 | 0.00 | 65 | 1015.8 |
| 20260506021538 | 69 | 136 | 0.0 | 2.0 | 0.00 | 0.00 | 0.00 | 64 | 1016.0 |
| 20260506020058 | 70 | 136 | 1.0 | 3.0 | 0.00 | 0.00 | 0.00 | 62 | 1015.6 |
| 20260506014529 | 71 | 135 | 2.0 | 4.0 | 0.00 | 0.00 | 0.00 | 60 | 1015.4 |
| 20260506013106 | 72 | 134 | 2.0 | 4.0 | 0.00 | 0.00 | 0.00 | 58 | 1015.2 |
| 20260506011532 | 73 | 135 | 2.0 | 6.0 | 0.00 | 0.00 | 0.00 | 57 | 1015.0 |
| 20260506010109 | 73 | 130 | 2.0 | 4.0 | 0.00 | 0.00 | 0.00 | 56 | 1015.0 |
| 20260506004529 | 74 | 139 | 3.0 | 7.0 | 0.00 | 0.00 | 0.00 | 55 | 1014.9 |
| 20260506003118 | 74 | 136 | 3.0 | 7.0 | 0.00 | 0.00 | 0.00 | 54 | 1014.7 |
| 20260506001533 | 75 | 132 | 3.0 | 9.0 | 0.00 | 0.00 | 0.00 | 54 | 1014.6 |
| 20260506000002 | 76 | 128 | 4.0 | 9.0 | 0.00 | 0.00 | 0.00 | 52 | 1014.3 |
| 20260505234602 | 77 | 117 | 5.0 | 11.0 | 0.00 | 0.00 | 0.00 | 52 | 1014.1 |
| 20260505233004 | 78 | 140 | 7.0 | 12.0 | 0.00 | 0.00 | 0.00 | 51 | 1014.0 |
| 20260505231547 | 78 | 134 | 5.0 | 11.0 | 0.00 | 0.00 | 0.00 | 50 | 1014.0 |